Tirana, Albania

6:34 PM CEST on September 25, 2016 (GMT +0200)
Tirana

Weather History for 13615 - April, 2013

Change the Weather History Date:

Wednesday, April 10, 2013

  Actual Average Record
Temperature  
Mean Temperature 58 °F -  
Max Temperature 66 °F - - ()
Min Temperature 51 °F - - ()
Degree Days  
Heating Degree Days 6    
Growing Degree Days 8 (Base 50)    
Moisture  
Dew Point 48 °F    
Average Humidity 70    
Maximum Humidity 88    
Minimum Humidity 41    
Precipitation  
Precipitation 0.00 in - - ()
Sea Level Pressure  
Sea Level Pressure 29.96 in    
Wind  
Wind Speed 5 mph ()    
Max Wind Speed 15 mph    
Max Gust Speed -    
Visibility 6.5 miles    
Events Rain    
T = Trace of Precipitation, MM = Missing Value Source: Averaged Metar Reports

Daily Weather History Graph

Daily Weather History Graph

Search for Another Location

Airport or City:

Trip Planner

Search our weather history database for the weather conditions in past years. The results will help you decide how hot, cold, wet, or windy it might be!

Date:

Astronomy

Apr. 10, 2013 Rise Set
Actual Time 6:09 AM CEST 7:16 PM CEST
Civil Twilight 5:41 AM CEST 7:44 PM CEST
Nautical Twilight 5:07 AM CEST 8:18 PM CEST
Astronomical Twilight 4:31 AM CEST 8:54 PM CEST
Moon 5:55 AM CEST (4/10) 7:34 PM CEST (4/10)
Length of Visible Light 14h 03m
Length of Day
13h 06m
New Moon, 0% of the Moon is Illuminated
Apr 10
New Moon
Apr 18
First Quarter
Apr 25
Full
May 2
Last Quarter
May 10
New

Hourly Weather History & Observations

Time (CEST) Temp. Dew Point Humidity Pressure Visibility Wind Dir Wind Speed Gust Speed Precip Events Conditions
12:20 AM 53.6 °F 48.2 °F 82% 29.98 in 6.2 mi ESE 4.6 mph - N/A   Mostly Cloudy
12:50 AM 53.6 °F 48.2 °F 82% 29.98 in 6.2 mi SSE 3.5 mph - N/A   Mostly Cloudy
1:20 AM 53.6 °F 48.2 °F 82% 29.98 in 6.2 mi South 2.3 mph - N/A   Mostly Cloudy
1:50 AM 53.6 °F 48.2 °F 82% 29.98 in 6.2 mi SSW 4.6 mph - N/A   Mostly Cloudy
2:20 AM 51.8 °F 48.2 °F 88% 29.95 in 6.2 mi South 5.8 mph - N/A Rain Light Rain
2:50 AM 53.6 °F 48.2 °F 82% 29.95 in 6.2 mi South 5.8 mph - N/A   Mostly Cloudy
3:20 AM 53.6 °F 48.2 °F 82% 29.95 in 6.2 mi SE 9.2 mph - N/A Rain Light Rain
3:50 AM 53.6 °F 48.2 °F 82% 29.95 in 6.2 mi SE 6.9 mph - N/A   Overcast
4:20 AM 53.6 °F 48.2 °F 82% 29.95 in 6.2 mi Variable 2.3 mph - N/A   Light Drizzle
4:50 AM 53.6 °F 50.0 °F 88% 29.95 in 6.2 mi South 4.6 mph - N/A   Mostly Cloudy
5:00 AM 53 °F 49 °F 83% 29.95 in 17 mi SSE 4.5 mph - -   Overcast
5:20 AM 53.6 °F 48.2 °F 82% 29.95 in 6.2 mi SSE 6.9 mph - N/A   Mostly Cloudy
5:50 AM 51.8 °F 48.2 °F 88% 29.92 in 6.2 mi South 6.9 mph - N/A   Mostly Cloudy
6:20 AM 53.6 °F 48.2 °F 82% 29.95 in 6.2 mi South 5.8 mph - N/A   Mostly Cloudy
6:50 AM 51.8 °F 48.2 °F 88% 29.95 in 6.2 mi South 5.8 mph - N/A   Mostly Cloudy
7:20 AM 53.6 °F 48.2 °F 82% 29.95 in 6.2 mi South 4.6 mph - N/A   Overcast
7:50 AM 53.6 °F 48.2 °F 82% 29.95 in 6.2 mi Calm Calm - N/A   Mostly Cloudy
8:20 AM 55.4 °F 48.2 °F 77% 29.95 in 6.2 mi ESE 3.5 mph - N/A   Overcast
8:50 AM 55.4 °F 50.0 °F 82% 29.95 in 6.2 mi ESE 3.5 mph - N/A   Overcast
9:20 AM 57.2 °F 50.0 °F 77% 29.98 in 6.2 mi ESE 3.5 mph - N/A   Mostly Cloudy
9:50 AM 60.8 °F 50.0 °F 68% 29.98 in 6.2 mi ESE 4.6 mph - N/A   Mostly Cloudy
10:20 AM 60.8 °F 48.2 °F 63% 29.98 in 6.2 mi East 6.9 mph - N/A   Mostly Cloudy
10:50 AM 60.8 °F 44.6 °F 55% 29.98 in 6.2 mi East 3.5 mph - N/A   Mostly Cloudy
11:00 AM 62 °F 45 °F 42% 29.98 in 25 mi Calm Calm - -   Mostly Cloudy
11:20 AM 62.6 °F 44.6 °F 52% 29.98 in 6.2 mi Variable 3.5 mph - N/A   Scattered Clouds
11:50 AM 64.4 °F 44.6 °F 49% 29.95 in 6.2 mi SW 11.5 mph - N/A   Scattered Clouds
12:20 PM 62.6 °F 46.4 °F 55% 29.95 in 6.2 mi SW 11.5 mph - N/A   Mostly Cloudy
12:50 PM 64.4 °F 48.2 °F 56% 29.95 in 6.2 mi WSW 13.8 mph - N/A   Scattered Clouds
1:20 PM 64.4 °F 48.2 °F 56% 29.95 in 6.2 mi WSW 15.0 mph - N/A   Scattered Clouds
1:50 PM 66.2 °F 48.2 °F 52% 29.95 in 6.2 mi WSW 12.7 mph - N/A   Scattered Clouds
2:20 PM 66.2 °F 48.2 °F 52% 29.95 in 6.2 mi SW 10.4 mph - N/A   Scattered Clouds
2:50 PM 66.2 °F 46.4 °F 49% 29.95 in 6.2 mi WSW 12.7 mph - N/A   Partly Cloudy
3:20 PM 66.2 °F 42.8 °F 43% 29.95 in 6.2 mi WSW 11.5 mph - N/A   Scattered Clouds
3:50 PM 66.2 °F 42.8 °F 43% 29.95 in 6.2 mi WSW 11.5 mph - N/A   Scattered Clouds
4:20 PM 66.2 °F 44.6 °F 46% 29.95 in 6.2 mi WSW 11.5 mph - N/A   Scattered Clouds
4:50 PM 64.4 °F 46.4 °F 52% 29.95 in 6.2 mi WSW 9.2 mph - N/A   Mostly Cloudy
5:00 PM 64 °F 46 °F 41% 29.95 in 28 mi WSW 11.2 mph - -   Mostly Cloudy
5:20 PM 64.4 °F 46.4 °F 52% 29.95 in 6.2 mi WSW 11.5 mph - N/A   Mostly Cloudy
5:50 PM 64.4 °F 46.4 °F 52% 29.95 in 6.2 mi SW 9.2 mph - N/A   Mostly Cloudy
6:20 PM 62.6 °F 46.4 °F 55% 29.95 in 6.2 mi WSW 6.9 mph - N/A   Mostly Cloudy
6:50 PM 62.6 °F 50.0 °F 63% 29.95 in 6.2 mi WSW 3.5 mph - N/A   Mostly Cloudy
7:20 PM 60.8 °F 48.2 °F 63% 29.95 in 6.2 mi WSW 3.5 mph - N/A   Mostly Cloudy
7:50 PM 60.8 °F 48.2 °F 63% 29.98 in 6.2 mi SW 3.5 mph - N/A   Scattered Clouds
8:20 PM 55.4 °F 48.2 °F 77% 29.98 in 6.2 mi South 3.5 mph - N/A   Scattered Clouds
8:50 PM 57.2 °F 48.2 °F 72% 29.98 in 6.2 mi SW 3.5 mph - N/A   Partly Cloudy
9:20 PM 53.6 °F 48.2 °F 82% 29.98 in 6.2 mi Variable 2.3 mph - N/A   Scattered Clouds
9:50 PM 53.6 °F 50.0 °F 88% 29.98 in 6.2 mi Calm Calm - N/A   Mostly Cloudy
10:20 PM 53.6 °F 50.0 °F 88% 29.98 in 6.2 mi Calm Calm - N/A   Mostly Cloudy
10:50 PM 53.6 °F 50.0 °F 88% 29.98 in 6.2 mi South 3.5 mph - N/A   Mostly Cloudy
11:00 PM 53 °F 48 °F 78% 30.00 in 12 mi SE 2.2 mph - -   Scattered Clouds
11:20 PM 53.6 °F 50.0 °F 88% 29.98 in 6.2 mi SE 3.5 mph - N/A   Partly Cloudy
11:50 PM 51.8 °F 48.2 °F 88% 30.01 in 6.2 mi South 5.8 mph - N/A   Scattered Clouds